Time,TemperatureF,DewpointF,PressureIn,WindDirection,WindDirectionDegrees,WindSpeedMPH,WindSpeedGustMPH,Humidity,HourlyPrecipIn,Conditions,Clouds,dailyrainin,SoftwareType,DateUTC
2013-01-15 00:00:00,15.8,8.4,29.68,SW,214,0.0,0.0,72,0.00,,,0.00,Weather View 32 v70,2013-01-15 05:00:00,
2013-01-15 00:20:00,15.8,8.4,29.71,SW,214,0.0,0.0,72,0.00,,,0.00,Weather View 32 v70,2013-01-15 05:20:00,
2013-01-15 00:39:00,16.2,8.7,29.71,SW,214,0.0,0.0,72,0.00,,,0.00,Weather View 32 v70,2013-01-15 05:39:00,
2013-01-15 00:40:00,16.2,8.7,29.71,SW,214,0.0,0.0,72,0.00,,,0.00,Weather View 32 v70,2013-01-15 05:40:00,
2013-01-15 01:00:00,16.0,8.6,29.71,SW,217,0.0,0.0,72,0.00,,,0.00,Weather View 32 v70,2013-01-15 06:00:00,
2013-01-15 01:20:00,16.0,8.6,29.71,NW,311,0.0,3.0,72,0.00,,,0.00,Weather View 32 v70,2013-01-15 06:20:00,
2013-01-15 01:40:00,15.6,8.2,29.71,NW,311,0.0,3.0,72,0.00,,,0.00,Weather View 32 v70,2013-01-15 06:40:00,
2013-01-15 02:00:00,14.2,6.5,29.71,NW,311,0.0,3.0,71,0.00,,,0.00,Weather View 32 v70,2013-01-15 07:00:00,
2013-01-15 02:20:00,14.0,6.3,29.71,NW,311,0.0,0.0,71,0.00,,,0.00,Weather View 32 v70,2013-01-15 07:20:00,
2013-01-15 02:40:00,13.6,6.3,29.74,NW,311,0.0,0.0,72,0.00,,,0.00,Weather View 32 v70,2013-01-15 07:40:00,
2013-01-15 03:00:00,13.3,6.0,29.71,NW,311,0.0,0.0,72,0.00,,,0.00,Weather View 32 v70,2013-01-15 08:00:00,
2013-01-15 03:19:00,12.9,5.6,29.71,NW,311,0.0,0.0,72,0.00,,,0.00,Weather View 32 v70,2013-01-15 08:19:00,
2013-01-15 03:40:00,12.2,4.9,29.71,NW,311,0.0,0.0,72,0.00,,,0.00,Weather View 32 v70,2013-01-15 08:40:00,
2013-01-15 04:00:00,12.7,5.4,29.71,NW,311,0.0,0.0,72,0.00,,,0.00,Weather View 32 v70,2013-01-15 09:00:00,
2013-01-15 04:19:00,12.6,5.3,29.71,SW,234,0.0,0.0,72,0.00,,,0.00,Weather View 32 v70,2013-01-15 09:19:00,
2013-01-15 04:40:00,12.0,4.7,29.71,SW,234,0.0,0.0,72,0.00,,,0.00,Weather View 32 v70,2013-01-15 09:40:00,
2013-01-15 05:00:00,12.0,4.7,29.71,SW,234,0.0,0.0,72,0.00,,,0.00,Weather View 32 v70,2013-01-15 10:00:00,
2013-01-15 05:20:00,12.4,5.1,29.71,SW,234,0.0,0.0,72,0.00,,,0.00,Weather View 32 v70,2013-01-15 10:20:00,
2013-01-15 05:40:00,12.0,4.7,29.71,SW,234,0.0,0.0,72,0.00,,,0.00,Weather View 32 v70,2013-01-15 10:40:00,
2013-01-15 06:00:00,12.2,4.9,29.71,SW,234,0.0,0.0,72,0.00,,,0.00,Weather View 32 v70,2013-01-15 11:00:00,
2013-01-15 06:20:00,12.0,4.7,29.71,SW,234,0.0,0.0,72,0.00,,,0.00,Weather View 32 v70,2013-01-15 11:20:00,
2013-01-15 06:39:00,11.8,4.6,29.68,SW,234,0.0,0.0,72,0.00,,,0.00,Weather View 32 v70,2013-01-15 11:39:00,
2013-01-15 07:00:00,11.1,3.9,29.71,SW,234,0.0,0.0,72,0.00,,,0.00,Weather View 32 v70,2013-01-15 12:00:00,
2013-01-15 07:20:00,11.1,3.9,29.71,SW,234,0.0,0.0,72,0.00,,,0.00,Weather View 32 v70,2013-01-15 12:20:00,
2013-01-15 07:40:00,10.9,3.7,29.71,SW,234,0.0,0.0,72,0.00,,,0.00,Weather View 32 v70,2013-01-15 12:40:00,
2013-01-15 07:59:00,10.9,3.7,29.71,SW,234,0.0,0.0,72,0.00,,,0.00,Weather View 32 v70,2013-01-15 12:59:00,
2013-01-15 08:20:00,10.8,3.5,29.71,SW,234,0.0,0.0,72,0.00,,,0.00,Weather View 32 v70,2013-01-15 13:20:00,
2013-01-15 08:40:00,11.1,3.9,29.71,SW,234,0.0,0.0,72,0.00,,,0.00,Weather View 32 v70,2013-01-15 13:40:00,
2013-01-15 09:00:00,13.3,7.1,29.71,SW,234,0.0,0.0,76,0.00,,,0.00,Weather View 32 v70,2013-01-15 14:00:00,
2013-01-15 09:19:00,14.7,9.1,29.74,SW,234,0.0,0.0,78,0.00,,,0.00,Weather View 32 v70,2013-01-15 14:19:00,
2013-01-15 09:40:00,16.7,11.3,29.74,SW,228,0.0,0.0,79,0.00,,,0.00,Weather View 32 v70,2013-01-15 14:40:00,
2013-01-15 10:00:00,18.7,13.3,29.74,SW,228,0.0,0.0,79,0.00,,,0.00,Weather View 32 v70,2013-01-15 15:00:00,
2013-01-15 10:05:00,18.7,13.3,29.74,SW,228,0.0,0.0,79,0.00,,,0.00,Weather View 32 v70,2013-01-15 15:05:00,
2013-01-15 10:19:00,19.9,14.2,29.74,SW,228,0.0,0.0,78,0.00,,,0.00,Weather View 32 v70,2013-01-15 15:19:00,
2013-01-15 10:40:00,21.0,14.3,29.74,SW,228,0.0,0.0,75,0.00,,,0.00,Weather View 32 v70,2013-01-15 15:40:00,
2013-01-15 11:00:00,21.9,13.3,29.74,East,98,0.0,0.0,69,0.00,,,0.00,Weather View 32 v70,2013-01-15 16:00:00,
2013-01-15 11:06:00,21.9,13.3,29.74,East,98,0.0,0.0,69,0.00,,,0.00,Weather View 32 v70,2013-01-15 16:06:00,
2013-01-15 11:20:00,22.5,9.5,29.74,NNW,340,0.0,3.0,57,0.00,,,0.00,Weather View 32 v70,2013-01-15 16:20:00,
2013-01-15 11:39:00,22.8,8.7,29.74,North,357,3.0,3.0,54,0.00,,,0.00,Weather View 32 v70,2013-01-15 16:39:00,
2013-01-15 12:00:00,23.2,8.6,29.74,ENE,69,0.0,3.0,53,0.00,,,0.00,Weather View 32 v70,2013-01-15 17:00:00,
2013-01-15 12:07:00,23.2,8.6,29.74,ENE,69,0.0,3.0,53,0.00,,,0.00,Weather View 32 v70,2013-01-15 17:07:00,
2013-01-15 12:20:00,25.2,10.4,29.71,NW,314,0.0,4.0,53,0.00,,,0.00,Weather View 32 v70,2013-01-15 17:20:00,
2013-01-15 12:39:00,26.6,8.1,29.71,SW,224,0.0,4.0,45,0.00,,,0.00,Weather View 32 v70,2013-01-15 17:39:00,
2013-01-15 13:00:00,28.6,7.8,29.68,SSW,212,3.0,5.0,41,0.00,,,0.00,Weather View 32 v70,2013-01-15 18:00:00,
2013-01-15 13:07:00,28.6,7.8,29.68,SSW,212,3.0,5.0,41,0.00,,,0.00,Weather View 32 v70,2013-01-15 18:07:00,
2013-01-15 13:20:00,28.8,8.5,0.00,SW,231,3.0,5.0,42,0.00,,,0.00,Weather View 32 v70,2013-01-15 18:20:00,
2013-01-15 13:40:00,28.0,8.4,29.65,SSW,196,2.0,5.0,43,0.00,,,0.00,Weather View 32 v70,2013-01-15 18:40:00,
2013-01-15 13:59:00,27.7,9.1,0.00,SSW,211,3.0,5.0,45,0.00,,,0.00,Weather View 32 v70,2013-01-15 18:59:00,
2013-01-15 14:08:00,27.7,9.1,0.00,SSW,211,3.0,5.0,45,0.00,,,0.00,Weather View 32 v70,2013-01-15 19:08:00,
2013-01-15 14:20:00,28.2,8.1,0.00,South,169,2.0,5.0,42,0.00,,,0.00,Weather View 32 v70,2013-01-15 19:20:00,
2013-01-15 14:40:00,27.7,7.6,29.65,SSW,207,3.0,6.0,42,0.00,,,0.00,Weather View 32 v70,2013-01-15 19:40:00,
2013-01-15 14:59:00,27.7,8.1,29.65,SSW,202,3.0,6.0,43,0.00,,,0.00,Weather View 32 v70,2013-01-15 19:59:00,
2013-01-15 15:09:00,27.7,8.1,29.65,SSW,202,3.0,6.0,43,0.00,,,0.00,Weather View 32 v70,2013-01-15 20:09:00,
2013-01-15 15:19:00,27.1,7.1,29.62,SW,235,3.0,6.0,42,0.00,,,0.00,Weather View 32 v70,2013-01-15 20:19:00,
2013-01-15 15:40:00,27.3,8.3,29.62,West,279,0.0,6.0,44,0.00,,,0.00,Weather View 32 v70,2013-01-15 20:40:00,
2013-01-15 16:00:00,27.0,8.4,29.62,SW,230,0.0,5.0,45,0.00,,,0.00,Weather View 32 v70,2013-01-15 21:00:00,
2013-01-15 16:20:00,27.0,9.4,29.62,WNW,282,0.0,4.0,47,0.00,,,0.00,Weather View 32 v70,2013-01-15 21:20:00,
2013-01-15 16:40:00,26.2,8.3,29.62,North,357,3.0,4.0,46,0.00,,,0.00,Weather View 32 v70,2013-01-15 21:40:00,
2013-01-15 17:00:00,26.1,9.0,29.59,North,357,0.0,4.0,48,0.00,,,0.00,Weather View 32 v70,2013-01-15 22:00:00,
2013-01-15 17:20:00,25.0,8.5,29.62,North,357,0.0,3.0,49,0.00,,,0.00,Weather View 32 v70,2013-01-15 22:20:00,
2013-01-15 17:39:00,24.4,9.3,29.62,North,357,0.0,3.0,52,0.00,,,0.00,Weather View 32 v70,2013-01-15 22:39:00,
2013-01-15 18:00:00,23.7,9.5,29.62,North,357,0.0,0.0,54,0.00,,,0.00,Weather View 32 v70,2013-01-15 23:00:00,
2013-01-15 18:20:00,23.0,10.4,29.59,North,357,0.0,0.0,58,0.00,,,0.00,Weather View 32 v70,2013-01-15 23:20:00,
2013-01-15 18:40:00,23.0,11.2,29.59,North,357,0.0,0.0,60,0.00,,,0.00,Weather View 32 v70,2013-01-15 23:40:00,
2013-01-15 19:00:00,22.6,11.2,29.59,North,357,0.0,0.0,61,0.00,,,0.00,Weather View 32 v70,2013-01-16 00:00:00,
2013-01-15 19:20:00,22.1,11.4,29.59,North,357,0.0,0.0,63,0.00,,,0.00,Weather View 32 v70,2013-01-16 00:20:00,
2013-01-15 19:40:00,21.6,11.3,29.59,North,357,0.0,0.0,64,0.00,,,0.00,Weather View 32 v70,2013-01-16 00:40:00,
2013-01-15 19:59:00,20.7,10.4,29.56,North,357,0.0,0.0,64,0.00,,,0.00,Weather View 32 v70,2013-01-16 00:59:00,
2013-01-15 20:00:00,20.7,10.4,29.56,North,357,0.0,0.0,64,0.00,,,0.00,Weather View 32 v70,2013-01-16 01:00:00,
2013-01-15 20:20:00,20.7,10.4,29.56,North,357,0.0,0.0,64,0.00,,,0.00,Weather View 32 v70,2013-01-16 01:20:00,
2013-01-15 20:40:00,20.1,10.2,29.56,North,357,0.0,0.0,65,0.00,,,0.00,Weather View 32 v70,2013-01-16 01:40:00,
2013-01-15 21:00:00,19.4,9.9,29.53,North,357,0.0,0.0,66,0.00,,,0.00,Weather View 32 v70,2013-01-16 02:00:00,
2013-01-15 21:20:00,19.2,10.4,29.53,North,357,0.0,0.0,68,0.00,,,0.00,Weather View 32 v70,2013-01-16 02:20:00,
2013-01-15 21:40:00,18.9,10.0,29.50,North,357,0.0,0.0,68,0.00,,,0.00,Weather View 32 v70,2013-01-16 02:40:00,
2013-01-15 22:00:00,18.5,10.4,29.50,North,357,0.0,0.0,70,0.00,,,0.00,Weather View 32 v70,2013-01-16 03:00:00,
2013-01-15 22:20:00,18.0,10.2,29.50,North,357,0.0,0.0,71,0.00,,,0.00,Weather View 32 v70,2013-01-16 03:20:00,
2013-01-15 22:39:00,17.2,9.5,29.50,North,357,0.0,0.0,71,0.00,,,0.00,Weather View 32 v70,2013-01-16 03:39:00,
2013-01-15 23:00:00,17.6,10.4,29.50,North,357,0.0,0.0,73,0.00,,,0.00,Weather View 32 v70,2013-01-16 04:00:00,
2013-01-15 23:20:00,17.6,10.7,29.47,North,357,0.0,0.0,74,0.00,,,0.00,Weather View 32 v70,2013-01-16 04:20:00,
2013-01-15 23:40:00,17.8,10.9,29.47,North,357,0.0,0.0,74,0.00,,,0.00,Weather View 32 v70,2013-01-16 04:40:00,